| time (UTC) | temp F | wind direction | speed MPH | gust MPH | rain 1hr in | rain 24hr in | rain mn in | humidity % | barometer mb |
| 20260903082059 | 76 | 254 | 4.0 | 4.0 | 0.00 | 0.01 | 0.00 | 84 | 1014.7 |
| 20260903081559 | 77 | 249 | 4.0 | 4.0 | 0.00 | 0.01 | 0.00 | 84 | 1014.6 |
| 20260903081058 | 77 | 240 | 3.0 | 3.0 | 0.00 | 0.01 | 0.00 | 83 | 1014.6 |
| 20260903080557 | 78 | 243 | 0.0 | 3.0 | 0.00 | 0.01 | 0.00 | 81 | 1014.6 |
| 20260903080105 | 78 | 0 | 0.0 | 0.0 | 0.00 | 0.01 | 0.00 | 80 | 1014.6 |
| 20260903075556 | 78 | 0 | 0.0 | 0.0 | 0.00 | 0.01 | 0.00 | 80 | 1014.6 |
| 20260903075056 | 79 | 0 | 0.0 | 0.0 | 0.00 | 0.01 | 0.00 | 79 | 1014.5 |
| 20260903074604 | 79 | 0 | 0.0 | 0.0 | 0.00 | 0.01 | 0.00 | 78 | 1014.4 |
| 20260903074057 | 79 | 0 | 0.0 | 0.0 | 0.00 | 0.01 | 0.00 | 78 | 1014.4 |
| 20260903073558 | 79 | 0 | 0.0 | 0.0 | 0.00 | 0.01 | 0.00 | 78 | 1014.3 |
| 20260903073106 | 79 | 0 | 0.0 | 1.0 | 0.00 | 0.01 | 0.00 | 78 | 1014.4 |
| 20260903072552 | 79 | 0 | 0.0 | 2.0 | 0.00 | 0.01 | 0.00 | 78 | 1014.3 |
| 20260903072057 | 79 | 0 | 0.0 | 2.0 | 0.00 | 0.01 | 0.00 | 77 | 1014.4 |
| 20260903071603 | 79 | 88 | 1.0 | 3.0 | 0.00 | 0.01 | 0.00 | 78 | 1014.4 |
| 20260903071056 | 79 | 74 | 1.0 | 3.0 | 0.00 | 0.01 | 0.00 | 78 | 1014.5 |
| 20260903070556 | 79 | 79 | 2.0 | 3.0 | 0.00 | 0.01 | 0.00 | 79 | 1014.6 |
| 20260903065558 | 79 | 90 | 2.0 | 3.0 | 0.00 | 0.01 | 0.00 | 80 | 1014.6 |
| 20260903065056 | 79 | 84 | 2.0 | 3.0 | 0.00 | 0.01 | 0.00 | 80 | 1014.5 |
| 20260903064600 | 79 | 0 | 0.0 | 2.0 | 0.00 | 0.01 | 0.00 | 80 | 1014.7 |
| 20260903064056 | 79 | 0 | 0.0 | 3.0 | 0.00 | 0.01 | 0.00 | 80 | 1014.4 |
| 20260903063557 | 79 | 101 | 2.0 | 3.0 | 0.00 | 0.01 | 0.00 | 80 | 1014.5 |
| 20260903063106 | 79 | 88 | 2.0 | 4.0 | 0.00 | 0.01 | 0.00 | 80 | 1014.6 |
| 20260903062558 | 79 | 96 | 3.0 | 4.0 | 0.00 | 0.01 | 0.00 | 80 | 1014.7 |
| 20260903062053 | 79 | 86 | 3.0 | 4.0 | 0.00 | 0.01 | 0.00 | 80 | 1014.7 |
| 20260903061605 | 79 | 90 | 2.0 | 3.0 | 0.00 | 0.01 | 0.00 | 80 | 1014.7 |
| 20260903061057 | 79 | 92 | 3.0 | 3.0 | 0.00 | 0.01 | 0.00 | 80 | 1014.8 |
| 20260903060556 | 78 | 94 | 2.0 | 3.0 | 0.00 | 0.01 | 0.00 | 81 | 1014.7 |
| 20260903060106 | 78 | 82 | 2.0 | 3.0 | 0.00 | 0.01 | 0.00 | 81 | 1014.6 |
| 20260903055557 | 78 | 97 | 1.0 | 2.0 | 0.00 | 0.01 | 0.00 | 81 | 1014.8 |
| 20260903055057 | 78 | 106 | 1.0 | 2.0 | 0.00 | 0.01 | 0.00 | 81 | 1014.8 |
| 20260903054558 | 78 | 112 | 0.0 | 2.0 | 0.00 | 0.01 | 0.00 | 81 | 1014.9 |
| 20260903054053 | 78 | 126 | 1.0 | 2.0 | 0.00 | 0.01 | 0.00 | 81 | 1014.7 |
| 20260903053553 | 78 | 135 | 0.0 | 0.0 | 0.00 | 0.01 | 0.00 | 81 | 1014.6 |
| 20260903053101 | 78 | 0 | 0.0 | 1.0 | 0.00 | 0.01 | 0.00 | 81 | 1014.7 |
| 20260903052553 | 78 | 0 | 0.0 | 1.0 | 0.00 | 0.01 | 0.00 | 81 | 1014.5 |
| 20260903052054 | 78 | 146 | 1.0 | 1.0 | 0.00 | 0.01 | 0.00 | 81 | 1014.7 |
| 20260903051609 | 78 | 118 | 1.0 | 2.0 | 0.00 | 0.01 | 0.00 | 81 | 1014.6 |
| 20260903051052 | 78 | 122 | 1.0 | 3.0 | 0.00 | 0.01 | 0.00 | 81 | 1014.5 |
| 20260903050556 | 79 | 110 | 2.0 | 3.0 | 0.00 | 0.01 | 0.00 | 80 | 1014.5 |
| 20260903045555 | 80 | 89 | 2.0 | 4.0 | 0.00 | 0.01 | 0.01 | 79 | 1014.5 |
| 20260903045059 | 80 | 88 | 3.0 | 4.0 | 0.00 | 0.01 | 0.01 | 78 | 1014.3 |
| 20260903044601 | 80 | 77 | 3.0 | 4.0 | 0.00 | 0.01 | 0.01 | 77 | 1014.4 |
| 20260903044058 | 80 | 0 | 0.0 | 3.0 | 0.00 | 0.01 | 0.01 | 77 | 1014.5 |
| 20260903043553 | 80 | 88 | 1.0 | 3.0 | 0.00 | 0.01 | 0.01 | 77 | 1014.5 |
| 20260903043104 | 80 | 0 | 0.0 | 2.0 | 0.00 | 0.01 | 0.01 | 77 | 1014.4 |
| 20260903042557 | 80 | 0 | 1.0 | 2.0 | 0.00 | 0.01 | 0.01 | 77 | 1014.4 |
| 20260903042056 | 80 | 83 | 0.0 | 0.0 | 0.00 | 0.01 | 0.01 | 77 | 1014.5 |
| 20260903041601 | 81 | 0 | 0.0 | 0.0 | 0.00 | 0.01 | 0.01 | 76 | 1014.4 |
| 20260903041056 | 80 | 0 | 0.0 | 0.0 | 0.00 | 0.01 | 0.01 | 76 | 1014.4 |
| 20260903040557 | 80 | 0 | 0.0 | 0.0 | 0.00 | 0.01 | 0.01 | 76 | 1014.5 |
| 20260903040058 | 80 | 0 | 0.0 | 0.0 | 0.00 | 0.01 | 0.01 | 76 | 1014.5 |
| 20260903035555 | 80 | 0 | 0.0 | 0.0 | 0.00 | 0.01 | 0.01 | 76 | 1014.5 |
| 20260903035056 | 81 | 0 | 0.0 | 0.0 | 0.00 | 0.01 | 0.01 | 76 | 1014.5 |
| 20260903034602 | 80 | 0 | 0.0 | 0.0 | 0.00 | 0.01 | 0.01 | 76 | 1014.4 |
| 20260903034057 | 80 | 0 | 0.0 | 0.0 | 0.00 | 0.01 | 0.01 | 76 | 1014.4 |
| 20260903033618 | 80 | 0 | 0.0 | 0.0 | 0.00 | 0.01 | 0.01 | 76 | 1014.5 |
| 20260903033102 | 81 | 0 | 0.0 | 0.0 | 0.00 | 0.01 | 0.01 | 75 | 1014.6 |
| 20260903032556 | 81 | 0 | 0.0 | 0.0 | 0.00 | 0.01 | 0.01 | 74 | 1014.5 |
| 20260903032057 | 81 | 0 | 0.0 | 0.0 | 0.00 | 0.01 | 0.01 | 74 | 1014.5 |
| 20260903031601 | 81 | 0 | 0.0 | 0.0 | 0.00 | 0.01 | 0.01 | 74 | 1014.3 |
| 20260903031056 | 81 | 0 | 0.0 | 0.0 | 0.00 | 0.01 | 0.01 | 74 | 1014.4 |
| 20260903030556 | 81 | 0 | 0.0 | 0.0 | 0.00 | 0.01 | 0.01 | 74 | 1014.5 |
| 20260903030059 | 82 | 0 | 0.0 | 0.0 | 0.00 | 0.01 | 0.01 | 74 | 1014.5 |
| 20260903025553 | 82 | 0 | 0.0 | 0.0 | 0.00 | 0.01 | 0.01 | 74 | 1014.4 |
| 20260903025053 | 81 | 0 | 0.0 | 0.0 | 0.00 | 0.01 | 0.01 | 74 | 1014.6 |
| 20260903024604 | 81 | 0 | 0.0 | 0.0 | 0.00 | 0.01 | 0.01 | 75 | 1014.4 |
| 20260903024052 | 81 | 0 | 0.0 | 0.0 | 0.00 | 0.01 | 0.01 | 75 | 1014.4 |
| 20260903023559 | 81 | 0 | 0.0 | 0.0 | 0.00 | 0.01 | 0.01 | 74 | 1014.5 |
| 20260903023106 | 82 | 0 | 0.0 | 0.0 | 0.00 | 0.01 | 0.01 | 74 | 1014.5 |
| 20260903022556 | 82 | 0 | 0.0 | 0.0 | 0.00 | 0.01 | 0.01 | 74 | 1014.5 |
| 20260903022059 | 82 | 0 | 0.0 | 0.0 | 0.00 | 0.01 | 0.01 | 74 | 1014.4 |
| 20260903021602 | 82 | 0 | 0.0 | 0.0 | 0.00 | 0.01 | 0.01 | 73 | 1014.3 |
| 20260903021055 | 82 | 0 | 0.0 | 0.0 | 0.00 | 0.01 | 0.01 | 72 | 1014.3 |
| 20260903020556 | 82 | 0 | 0.0 | 0.0 | 0.00 | 0.01 | 0.01 | 72 | 1014.4 |
| 20260903020101 | 82 | 0 | 0.0 | 0.0 | 0.00 | 0.01 | 0.01 | 72 | 1014.3 |
| 20260903015553 | 83 | 0 | 0.0 | 1.0 | 0.00 | 0.01 | 0.01 | 72 | 1014.3 |
| 20260903015056 | 83 | 0 | 0.0 | 2.0 | 0.00 | 0.01 | 0.01 | 72 | 1014.1 |
| 20260903014611 | 83 | 0 | 0.0 | 2.0 | 0.00 | 0.01 | 0.01 | 72 | 1014.0 |
| 20260903014056 | 83 | 248 | 2.0 | 2.0 | 0.00 | 0.01 | 0.01 | 71 | 1014.1 |
| 20260903013556 | 83 | 245 | 2.0 | 2.0 | 0.00 | 0.01 | 0.01 | 71 | 1014.0 |
| 20260903013100 | 83 | 232 | 2.0 | 2.0 | 0.00 | 0.01 | 0.01 | 71 | 1014.0 |
| 20260903012557 | 83 | 232 | 1.0 | 3.0 | 0.00 | 0.01 | 0.01 | 70 | 1013.9 |
| 20260903012056 | 84 | 217 | 1.0 | 3.0 | 0.00 | 0.01 | 0.01 | 70 | 1013.9 |
| 20260903011600 | 84 | 225 | 2.0 | 3.0 | 0.00 | 0.01 | 0.01 | 69 | 1013.8 |
| 20260903011053 | 84 | 243 | 1.0 | 2.0 | 0.00 | 0.01 | 0.01 | 68 | 1013.8 |
| 20260903010553 | 84 | 260 | 1.0 | 5.0 | 0.00 | 0.01 | 0.01 | 68 | 1013.8 |
| 20260903010107 | 84 | 269 | 1.0 | 6.0 | 0.00 | 0.01 | 0.01 | 68 | 1013.9 |
| 20260903005555 | 85 | 229 | 5.0 | 7.0 | 0.00 | 0.01 | 0.01 | 67 | 1013.9 |
| 20260903005052 | 85 | 198 | 4.0 | 11.0 | 0.00 | 0.01 | 0.01 | 66 | 1013.9 |
| 20260903004602 | 86 | 210 | 5.0 | 11.0 | 0.00 | 0.01 | 0.01 | 64 | 1013.9 |
| 20260903004056 | 86 | 217 | 8.0 | 11.0 | 0.00 | 0.01 | 0.01 | 64 | 1014.0 |
| 20260903003557 | 87 | 236 | 8.0 | 10.0 | 0.00 | 0.01 | 0.01 | 62 | 1014.0 |
| 20260903003102 | 88 | 242 | 5.0 | 9.0 | 0.00 | 0.01 | 0.01 | 59 | 1013.9 |
| 20260903002556 | 88 | 191 | 7.0 | 9.0 | 0.00 | 0.01 | 0.01 | 58 | 1014.0 |
| 20260903002056 | 88 | 210 | 6.0 | 7.0 | 0.00 | 0.01 | 0.01 | 56 | 1013.9 |
| 20260903001608 | 89 | 154 | 4.0 | 5.0 | 0.00 | 0.01 | 0.01 | 56 | 1013.9 |
| 20260903001055 | 88 | 191 | 2.0 | 6.0 | 0.00 | 0.01 | 0.01 | 56 | 1013.9 |
| 20260903000556 | 88 | 152 | 3.0 | 6.0 | 0.00 | 0.01 | 0.01 | 57 | 1013.9 |
| 20260903000105 | 89 | 139 | 3.0 | 6.0 | 0.00 | 0.01 | 0.01 | 55 | 1013.9 |
| 20260902235553 | 89 | 169 | 4.0 | 8.0 | 0.00 | 0.01 | 0.01 | 55 | 1013.9 |
| 20260902235053 | 89 | 165 | 5.0 | 8.0 | 0.00 | 0.01 | 0.01 | 56 | 1013.8 |
| 20260902234608 | 89 | 212 | 7.0 | 9.0 | 0.00 | 0.01 | 0.01 | 57 | 1013.8 |
| 20260902234055 | 88 | 233 | 7.0 | 12.0 | 0.00 | 0.01 | 0.01 | 57 | 1013.7 |
| 20260902233559 | 88 | 224 | 7.0 | 15.0 | 0.00 | 0.01 | 0.01 | 57 | 1013.9 |
| 20260902233104 | 89 | 237 | 11.0 | 15.0 | 0.00 | 0.01 | 0.01 | 57 | 1013.9 |
| 20260902232555 | 89 | 236 | 9.0 | 13.0 | 0.00 | 0.01 | 0.01 | 57 | 1013.7 |
| 20260902232056 | 89 | 235 | 10.0 | 19.0 | 0.00 | 0.01 | 0.01 | 57 | 1013.6 |
| 20260902231603 | 89 | 214 | 12.0 | 23.0 | 0.00 | 0.01 | 0.01 | 57 | 1013.6 |
| 20260902231058 | 90 | 207 | 15.0 | 23.0 | 0.00 | 0.01 | 0.01 | 56 | 1013.9 |
| 20260902230555 | 91 | 209 | 15.0 | 21.0 | 0.00 | 0.01 | 0.01 | 54 | 1013.8 |
| 20260902230115 | 92 | 216 | 16.0 | 21.0 | 0.00 | 0.01 | 0.01 | 52 | 1013.8 |
| 20260902225556 | 93 | 189 | 9.0 | 12.0 | 0.00 | 0.01 | 0.01 | 51 | 1013.8 |
| 20260902225058 | 93 | 233 | 6.0 | 11.0 | 0.00 | 0.01 | 0.01 | 49 | 1013.6 |
| 20260902224601 | 93 | 239 | 6.0 | 11.0 | 0.00 | 0.01 | 0.01 | 50 | 1013.6 |
| 20260902224052 | 93 | 247 | 5.0 | 8.0 | 0.00 | 0.01 | 0.01 | 50 | 1013.6 |
| 20260902223552 | 93 | 269 | 4.0 | 9.0 | 0.00 | 0.01 | 0.01 | 51 | 1013.5 |
| 20260902223118 | 93 | 271 | 5.0 | 14.0 | 0.00 | 0.01 | 0.01 | 51 | 1013.6 |
| 20260902222557 | 93 | 299 | 5.0 | 14.0 | 0.00 | 0.01 | 0.01 | 50 | 1013.5 |
| 20260902222055 | 94 | 264 | 4.0 | 12.0 | 0.00 | 0.01 | 0.01 | 49 | 1013.5 |
| 20260902221559 | 95 | 295 | 5.0 | 9.0 | 0.00 | 0.01 | 0.01 | 47 | 1013.5 |
| 20260902221059 | 96 | 331 | 4.0 | 9.0 | 0.00 | 0.01 | 0.01 | 46 | 1013.5 |
| 20260902220557 | 96 | 299 | 4.0 | 7.0 | 0.00 | 0.01 | 0.01 | 45 | 1013.6 |
| 20260902220111 | 97 | 267 | 4.0 | 7.0 | 0.00 | 0.01 | 0.01 | 42 | 1013.5 |
| 20260902215552 | 97 | 285 | 4.0 | 9.0 | 0.00 | 0.01 | 0.01 | 41 | 1013.6 |
| 20260902215056 | 98 | 225 | 4.0 | 11.0 | 0.00 | 0.01 | 0.01 | 41 | 1013.6 |
| 20260902214601 | 98 | 229 | 6.0 | 11.0 | 0.00 | 0.01 | 0.01 | 40 | 1013.6 |
| 20260902214056 | 99 | 252 | 3.0 | 6.0 | 0.00 | 0.01 | 0.01 | 39 | 1013.5 |
| 20260902213554 | 99 | 0 | 2.0 | 7.0 | 0.00 | 0.01 | 0.01 | 41 | 1013.7 |
| 20260902213111 | 98 | 109 | 1.0 | 7.0 | 0.00 | 0.01 | 0.01 | 42 | 1013.7 |
| 20260902212556 | 98 | 110 | 4.0 | 8.0 | 0.00 | 0.01 | 0.01 | 41 | 1013.9 |
| 20260902212056 | 99 | 150 | 4.0 | 9.0 | 0.00 | 0.01 | 0.01 | 40 | 1013.8 |
| 20260902211608 | 99 | 128 | 3.0 | 9.0 | 0.00 | 0.01 | 0.01 | 39 | 1013.8 |
| 20260902211055 | 100 | 119 | 5.0 | 9.0 | 0.00 | 0.01 | 0.01 | 39 | 1013.8 |
| 20260902210555 | 100 | 78 | 2.0 | 5.0 | 0.00 | 0.01 | 0.01 | 40 | 1013.8 |
| 20260902210103 | 101 | 124 | 2.0 | 7.0 | 0.00 | 0.01 | 0.01 | 39 | 1013.8 |
| 20260902205557 | 99 | 234 | 2.0 | 10.0 | 0.00 | 0.01 | 0.01 | 40 | 1013.9 |
| 20260902205059 | 99 | 102 | 4.0 | 10.0 | 0.00 | 0.01 | 0.01 | 41 | 1014.0 |
| 20260902204605 | 98 | 134 | 6.0 | 10.0 | 0.00 | 0.01 | 0.01 | 41 | 1014.1 |
| 20260902204057 | 99 | 123 | 4.0 | 11.0 | 0.00 | 0.01 | 0.01 | 42 | 1014.0 |
| 20260902203555 | 98 | 155 | 4.0 | 11.0 | 0.00 | 0.01 | 0.01 | 41 | 1014.0 |
| 20260902203058 | 99 | 192 | 7.0 | 11.0 | 0.00 | 0.01 | 0.01 | 41 | 1014.1 |
| 20260902202556 | 100 | 214 | 6.0 | 10.0 | 0.00 | 0.01 | 0.01 | 41 | 1014.2 |
| 20260902202055 | 100 | 162 | 2.0 | 9.0 | 0.00 | 0.01 | 0.01 | 39 | 1014.3 |
| 20260902201603 | 99 | 246 | 6.0 | 11.0 | 0.00 | 0.01 | 0.01 | 41 | 1014.3 |
| 20260902201055 | 99 | 155 | 6.0 | 11.0 | 0.00 | 0.01 | 0.01 | 42 | 1014.2 |
| 20260902200555 | 98 | 164 | 3.0 | 10.0 | 0.00 | 0.01 | 0.01 | 41 | 1014.4 |
| 20260902200105 | 98 | 20 | 3.0 | 11.0 | 0.00 | 0.01 | 0.01 | 42 | 1014.4 |
| 20260902195556 | 98 | 85 | 3.0 | 11.0 | 0.00 | 0.01 | 0.01 | 41 | 1014.6 |
| 20260902195055 | 98 | 116 | 4.0 | 12.0 | 0.00 | 0.01 | 0.01 | 43 | 1014.4 |
| 20260902194605 | 97 | 219 | 4.0 | 12.0 | 0.00 | 0.01 | 0.01 | 43 | 1014.7 |
| 20260902194053 | 96 | 129 | 8.0 | 12.0 | 0.00 | 0.01 | 0.01 | 45 | 1014.8 |
| 20260902193556 | 95 | 165 | 5.0 | 10.0 | 0.00 | 0.01 | 0.01 | 48 | 1014.9 |
| 20260902193128 | 96 | 132 | 4.0 | 8.0 | 0.00 | 0.01 | 0.01 | 44 | 1014.9 |
| 20260902192552 | 96 | 122 | 3.0 | 7.0 | 0.00 | 0.01 | 0.01 | 45 | 1014.9 |
| 20260902192101 | 96 | 138 | 4.0 | 9.0 | 0.00 | 0.01 | 0.01 | 45 | 1015.1 |
| 20260902191605 | 96 | 133 | 5.0 | 9.0 | 0.00 | 0.01 | 0.01 | 47 | 1015.2 |
| 20260902191057 | 96 | 243 | 3.0 | 7.0 | 0.00 | 0.01 | 0.01 | 45 | 1015.2 |
| 20260902190555 | 96 | 170 | 3.0 | 9.0 | 0.00 | 0.01 | 0.01 | 46 | 1015.3 |
| 20260902190108 | 97 | 90 | 4.0 | 10.0 | 0.00 | 0.01 | 0.01 | 46 | 1015.4 |
| 20260902185556 | 97 | 92 | 4.0 | 10.0 | 0.00 | 0.01 | 0.01 | 46 | 1015.4 |
| 20260902185053 | 97 | 77 | 6.0 | 10.0 | 0.00 | 0.01 | 0.01 | 45 | 1015.6 |
| 20260902184658 | 97 | 118 | 5.0 | 10.0 | 0.00 | 0.01 | 0.01 | 45 | 1015.7 |
| 20260902184055 | 96 | 91 | 6.0 | 9.0 | 0.00 | 0.01 | 0.01 | 46 | 1015.8 |
| 20260902183557 | 96 | 108 | 5.0 | 9.0 | 0.00 | 0.01 | 0.01 | 47 | 1015.8 |
| 20260902183118 | 97 | 112 | 2.0 | 13.0 | 0.00 | 0.01 | 0.01 | 46 | 1015.9 |
| 20260902182556 | 97 | 216 | 5.0 | 13.0 | 0.00 | 0.01 | 0.01 | 45 | 1016.0 |
| 20260902182058 | 97 | 160 | 6.0 | 13.0 | 0.00 | 0.01 | 0.01 | 45 | 1016.1 |
| 20260902181602 | 96 | 140 | 5.0 | 10.0 | 0.00 | 0.01 | 0.01 | 46 | 1016.0 |
| 20260902181055 | 95 | 95 | 4.0 | 9.0 | 0.00 | 0.01 | 0.01 | 46 | 1016.1 |
| 20260902180556 | 95 | 108 | 6.0 | 10.0 | 0.00 | 0.01 | 0.01 | 46 | 1016.3 |
| 20260902180105 | 96 | 120 | 5.0 | 10.0 | 0.00 | 0.01 | 0.01 | 46 | 1016.4 |
| 20260902175555 | 95 | 0 | 0.0 | 9.0 | 0.00 | 0.01 | 0.01 | 49 | 1016.5 |
| 20260902175058 | 94 | 85 | 4.0 | 9.0 | 0.00 | 0.01 | 0.01 | 50 | 1016.5 |
| 20260902174603 | 95 | 72 | 4.0 | 10.0 | 0.00 | 0.01 | 0.01 | 48 | 1016.5 |
| 20260902174056 | 94 | 98 | 3.0 | 10.0 | 0.00 | 0.01 | 0.01 | 49 | 1016.5 |
| 20260902173556 | 95 | 79 | 3.0 | 11.0 | 0.00 | 0.01 | 0.01 | 50 | 1016.7 |
| 20260902173102 | 95 | 86 | 6.0 | 11.0 | 0.00 | 0.01 | 0.01 | 48 | 1016.7 |
| 20260902172555 | 96 | 97 | 3.0 | 11.0 | 0.00 | 0.01 | 0.01 | 47 | 1016.6 |
| 20260902172057 | 95 | 136 | 7.0 | 11.0 | 0.00 | 0.01 | 0.01 | 47 | 1016.8 |
| 20260902171606 | 95 | 119 | 5.0 | 8.0 | 0.00 | 0.01 | 0.01 | 47 | 1017.0 |
| 20260902171057 | 94 | 91 | 2.0 | 9.0 | 0.00 | 0.01 | 0.01 | 50 | 1017.1 |
| 20260902170555 | 94 | 0 | 4.0 | 9.0 | 0.00 | 0.01 | 0.01 | 49 | 1017.1 |
| 20260902165556 | 95 | 149 | 1.0 | 4.0 | 0.00 | 0.01 | 0.01 | 48 | 1017.2 |
| 20260902165055 | 94 | 0 | 0.0 | 4.0 | 0.00 | 0.01 | 0.01 | 49 | 1017.2 |
| 20260902164607 | 94 | 8 | 2.0 | 8.0 | 0.00 | 0.01 | 0.01 | 49 | 1017.2 |
| 20260902164056 | 94 | 323 | 3.0 | 8.0 | 0.00 | 0.01 | 0.01 | 50 | 1017.5 |
| 20260902163556 | 93 | 82 | 4.0 | 9.0 | 0.00 | 0.01 | 0.01 | 50 | 1017.4 |
| 20260902163103 | 93 | 222 | 2.0 | 9.0 | 0.00 | 0.01 | 0.01 | 50 | 1017.4 |
| 20260902162555 | 93 | 287 | 4.0 | 8.0 | 0.00 | 0.01 | 0.01 | 50 | 1017.6 |
| 20260902162056 | 94 | 0 | 0.0 | 8.0 | 0.00 | 0.01 | 0.01 | 50 | 1017.7 |
| 20260902161606 | 94 | 121 | 5.0 | 8.0 | 0.00 | 0.01 | 0.01 | 51 | 1017.6 |
| 20260902161055 | 93 | 81 | 1.0 | 6.0 | 0.00 | 0.01 | 0.01 | 52 | 1017.8 |
| 20260902160555 | 93 | 70 | 2.0 | 6.0 | 0.00 | 0.01 | 0.01 | 51 | 1017.7 |
| 20260902155556 | 93 | 150 | 3.0 | 6.0 | 0.00 | 0.01 | 0.01 | 52 | 1017.8 |
| 20260902155055 | 92 | 0 | 2.0 | 4.0 | 0.00 | 0.01 | 0.01 | 54 | 1017.9 |
| 20260902154603 | 92 | 93 | 1.0 | 8.0 | 0.00 | 0.01 | 0.01 | 54 | 1017.9 |
| 20260902154055 | 92 | 78 | 3.0 | 8.0 | 0.00 | 0.01 | 0.01 | 55 | 1017.9 |
| 20260902153555 | 91 | 100 | 1.0 | 8.0 | 0.00 | 0.01 | 0.01 | 55 | 1017.8 |
| 20260902153107 | 90 | 0 | 3.0 | 8.0 | 0.00 | 0.01 | 0.01 | 55 | 1017.9 |
| 20260902152556 | 90 | 319 | 4.0 | 6.0 | 0.00 | 0.01 | 0.01 | 55 | 1017.7 |
| 20260902152054 | 90 | 351 | 3.0 | 5.0 | 0.00 | 0.01 | 0.01 | 55 | 1017.7 |
| 20260902151605 | 90 | 303 | 1.0 | 5.0 | 0.00 | 0.01 | 0.01 | 55 | 1017.8 |
| 20260902151056 | 90 | 209 | 0.0 | 10.0 | 0.00 | 0.01 | 0.01 | 56 | 1017.8 |
| 20260902150556 | 89 | 281 | 2.0 | 10.0 | 0.00 | 0.01 | 0.01 | 57 | 1017.8 |
| 20260902145556 | 89 | 235 | 3.0 | 7.0 | 0.00 | 0.01 | 0.01 | 57 | 1017.8 |
| 20260902145055 | 88 | 0 | 2.0 | 7.0 | 0.00 | 0.01 | 0.01 | 58 | 1017.8 |
| 20260902144607 | 89 | 309 | 4.0 | 6.0 | 0.00 | 0.01 | 0.01 | 59 | 1017.7 |
| 20260902144055 | 88 | 0 | 2.0 | 9.0 | 0.00 | 0.01 | 0.01 | 60 | 1017.8 |
| 20260902143555 | 87 | 212 | 4.0 | 9.0 | 0.00 | 0.01 | 0.01 | 61 | 1017.9 |
| 20260902143104 | 87 | 331 | 3.0 | 7.0 | 0.00 | 0.01 | 0.01 | 61 | 1017.8 |
| 20260902142555 | 87 | 304 | 3.0 | 9.0 | 0.00 | 0.01 | 0.01 | 61 | 1017.7 |
| 20260902142052 | 87 | 309 | 2.0 | 9.0 | 0.00 | 0.01 | 0.01 | 61 | 1017.7 |
| 20260902141556 | 87 | 266 | 4.0 | 7.0 | 0.01 | 0.01 | 0.01 | 62 | 1017.8 |
| 20260902141057 | 86 | 271 | 4.0 | 7.0 | 0.01 | 0.01 | 0.01 | 62 | 1017.8 |
| 20260902140555 | 86 | 286 | 6.0 | 7.0 | 0.01 | 0.01 | 0.01 | 62 | 1017.9 |
| 20260902140104 | 86 | 308 | 2.0 | 8.0 | 0.01 | 0.01 | 0.01 | 64 | 1017.8 |
| 20260902135554 | 85 | 275 | 4.0 | 8.0 | 0.01 | 0.01 | 0.01 | 64 | 1017.8 |
| 20260902135056 | 85 | 304 | 5.0 | 7.0 | 0.01 | 0.01 | 0.01 | 64 | 1017.9 |
| 20260902134611 | 85 | 236 | 3.0 | 6.0 | 0.01 | 0.01 | 0.01 | 64 | 1017.9 |
| 20260902134056 | 85 | 264 | 3.0 | 5.0 | 0.01 | 0.01 | 0.01 | 65 | 1017.8 |
| 20260902133555 | 85 | 236 | 1.0 | 10.0 | 0.01 | 0.01 | 0.01 | 67 | 1017.8 |
| 20260902133101 | 84 | 0 | 0.0 | 10.0 | 0.01 | 0.01 | 0.01 | 68 | 1017.8 |
| 20260902132555 | 84 | 0 | 1.0 | 10.0 | 0.01 | 0.01 | 0.01 | 69 | 1017.9 |
| 20260902132055 | 83 | 0 | 0.0 | 6.0 | 0.01 | 0.01 | 0.01 | 73 | 1017.9 |
| 20260902131603 | 81 | 0 | 0.0 | 6.0 | 0.00 | 0.00 | 0.00 | 75 | 1017.9 |
| 20260902131056 | 81 | 191 | 0.0 | 8.0 | 0.00 | 0.00 | 0.00 | 44 | 1017.9 |
| 20260902130556 | 82 | 0 | 0.0 | 8.0 | 0.00 | 0.00 | 0.00 | 43 | 1017.8 |
| 20260902125555 | 0 | 0.0 | 0.0 | 0.00 | 0.00 | 0.00 | 1017.9 | ||
| 20260902125055 | 0 | 0.0 | 0.0 | 0.00 | 0.00 | 0.00 | 1017.8 | ||
| 20260902124616 | 0 | 0.0 | 0.0 | 0.00 | 0.00 | 0.00 | 1017.6 | ||
| 20260902124055 | 0 | 0.0 | 0.0 | 0.00 | 0.00 | 0.00 | 1017.6 | ||
| 20260902123556 | 0 | 0.0 | 0.0 | 0.00 | 0.00 | 0.00 | 1017.6 | ||
| 20260902123122 | 0 | 0.0 | 0.0 | 0.00 | 0.00 | 0.00 | 1017.6 | ||
| 20260902122557 | 0 | 0.0 | 0.0 | 0.00 | 0.00 | 0.00 | 1017.4 | ||
| 20260902122052 | 0 | 0.0 | 0.0 | 0.00 | 0.00 | 0.00 | 1017.4 | ||
| 20260902121608 | 0 | 0.0 | 0.0 | 0.00 | 0.00 | 0.00 | 1017.4 | ||
| 20260902121055 | 0 | 0.0 | 0.0 | 0.00 | 0.00 | 0.00 | 1017.2 | ||
| 20260902120555 | 0 | 0.0 | 0.0 | 0.00 | 0.00 | 0.00 | 1017.2 | ||
| 20260902120101 | 0 | 0.0 | 0.0 | 0.00 | 0.00 | 0.00 | 1017.2 | ||
| 20260902115556 | 0 | 0.0 | 0.0 | 0.00 | 0.00 | 0.00 | 1017.1 | ||
| 20260902115056 | 0 | 0.0 | 0.0 | 0.00 | 0.00 | 0.00 | 1017.0 | ||
| 20260902114606 | 0 | 0.0 | 0.0 | 0.00 | 0.00 | 0.00 | 1016.8 | ||
| 20260902114055 | 0 | 0.0 | 0.0 | 0.00 | 0.00 | 0.00 | 1016.9 | ||
| 20260902113555 | 0 | 0.0 | 0.0 | 0.00 | 0.00 | 0.00 | 1016.8 | ||
| 20260902113111 | 0 | 0.0 | 0.0 | 0.00 | 0.00 | 0.00 | 1017.0 | ||
| 20260902112552 | 0 | 0.0 | 0.0 | 0.00 | 0.00 | 0.00 | 1016.9 | ||
| 20260902112055 | 0 | 0.0 | 0.0 | 0.00 | 0.00 | 0.00 | 1017.0 | ||
| 20260902111559 | 0 | 0.0 | 0.0 | 0.00 | 0.00 | 0.00 | 1016.8 | ||
| 20260902111055 | 0 | 0.0 | 0.0 | 0.00 | 0.00 | 0.00 | 1016.8 | ||
| 20260902110556 | 0 | 0.0 | 0.0 | 0.00 | 0.00 | 0.00 | 1016.7 | ||
| 20260902110104 | 0 | 0.0 | 0.0 | 0.00 | 0.00 | 0.00 | 1016.6 | ||
| 20260902105555 | 0 | 0.0 | 0.0 | 0.00 | 0.00 | 0.00 | 1016.6 | ||
| 20260902105058 | 0 | 0.0 | 0.0 | 0.00 | 0.00 | 0.00 | 1016.4 | ||
| 20260902104600 | 0 | 0.0 | 0.0 | 0.00 | 0.00 | 0.00 | 1016.4 | ||
| 20260902104055 | 0 | 0.0 | 0.0 | 0.00 | 0.00 | 0.00 | 1016.5 | ||
| 20260902103553 | 0 | 0.0 | 0.0 | 0.00 | 0.00 | 0.00 | 1016.4 | ||
| 20260902103106 | 0 | 0.0 | 0.0 | 0.00 | 0.00 | 0.00 | 1016.3 | ||
| 20260902102555 | 0 | 0.0 | 0.0 | 0.00 | 0.00 | 0.00 | 1016.4 | ||
| 20260902102053 | 0 | 0.0 | 0.0 | 0.00 | 0.00 | 0.00 | 1016.5 | ||
| 20260902101556 | 0 | 0.0 | 0.0 | 0.00 | 0.00 | 0.00 | 1016.5 | ||
| 20260902101053 | 0 | 0.0 | 0.0 | 0.00 | 0.00 | 0.00 | 1016.5 | ||
| 20260902100553 | 0 | 0.0 | 0.0 | 0.00 | 0.00 | 0.00 | 1016.5 | ||
| 20260902100122 | 0 | 0.0 | 0.0 | 0.00 | 0.00 | 0.00 | 1016.4 | ||
| 20260902095554 | 0 | 0.0 | 0.0 | 0.00 | 0.00 | 0.00 | 1016.3 | ||
| 20260902095053 | 0 | 0.0 | 0.0 | 0.00 | 0.00 | 0.00 | 1016.4 | ||
| 20260902094603 | 0 | 0.0 | 0.0 | 0.00 | 0.00 | 0.00 | 1016.4 | ||
| 20260902094054 | 0 | 0.0 | 0.0 | 0.00 | 0.00 | 0.00 | 1016.5 | ||
| 20260902093553 | 0 | 0.0 | 0.0 | 0.00 | 0.00 | 0.00 | 1016.5 | ||
| 20260902093057 | 0 | 0.0 | 0.0 | 0.00 | 0.00 | 0.00 | 1016.4 | ||
| 20260902092555 | 0 | 0.0 | 0.0 | 0.00 | 0.00 | 0.00 | 1016.2 | ||
| 20260902092056 | 0 | 0.0 | 0.0 | 0.00 | 0.00 | 0.00 | 1016.2 | ||
| 20260902091610 | 0 | 0.0 | 0.0 | 0.00 | 0.00 | 0.00 | 1016.1 | ||
| 20260902091054 | 0 | 0.0 | 0.0 | 0.00 | 0.00 | 0.00 | 1015.9 | ||
| 20260902090554 | 0 | 0.0 | 0.0 | 0.00 | 0.00 | 0.00 | 1016.0 | ||
| 20260902090104 | 0 | 0.0 | 0.0 | 0.00 | 0.00 | 0.00 | 1016.0 | ||
| 20260902085554 | 0 | 0.0 | 0.0 | 0.00 | 0.00 | 0.00 | 1016.1 | ||
| 20260902085053 | 0 | 0.0 | 0.0 | 0.00 | 0.00 | 0.00 | 1016.0 | ||
| 20260902084603 | 0 | 0.0 | 0.0 | 0.00 | 0.00 | 0.00 | 1015.9 | ||
| 20260902084053 | 0 | 0.0 | 0.0 | 0.00 | 0.00 | 0.00 | 1015.9 | ||
| 20260902083553 | 0 | 0.0 | 0.0 | 0.00 | 0.00 | 0.00 | 1015.9 | ||
| 20260902083058 | 0 | 0.0 | 0.0 | 0.00 | 0.00 | 0.00 | 1015.9 | ||
| 20260902082556 | 0 | 0.0 | 0.0 | 0.00 | 0.00 | 0.00 | 1015.8 |